• In Netherlands
  • List of Countries
  • For 7 days
  • Water Temperature
  • Satellite Maps
  • Weather Map
  • Weather Widgets
  • user-avatar
    Login

    Hourly Weather Madinat 'Isa

    Today, 29 May, Monday

    Time Temperature Precipitation Wind Pressure Humidity
    00:00 +37°C° 0 mm 8 mps 752 mmHg 33%
    01:00 +37°C° 0 mm 8 mps 751 mmHg 34%
    02:00 +37°C° 0 mm 8 mps 751 mmHg 35%
    03:00 +37°C° 0 mm 8 mps 751 mmHg 37%
    04:00 +37°C° 0 mm 8 mps 751 mmHg 37%
    05:00 +37°C° 0 mm 8 mps 752 mmHg 38%
    06:00 +37°C° 0 mm 9 mps 752 mmHg 39%
    07:00 +38°C° 0 mm 9 mps 752 mmHg 33%
    08:00 +40°C° 0 mm 9 mps 752 mmHg 28%
    09:00 +42°C° 0 mm 9 mps 752 mmHg 23%
    10:00 +43°C° 0 mm 9 mps 752 mmHg 20%
    11:00 +45°C° 0 mm 9 mps 752 mmHg 17%
    12:00 +47°C° 0 mm 9 mps 752 mmHg 14%
    13:00 +47°C° 0 mm 9 mps 752 mmHg 15%
    14:00 +47°C° 0 mm 9 mps 751 mmHg 15%
    15:00 +45°C° 0 mm 9 mps 751 mmHg 16%
    16:00 +45°C° 0 mm 9 mps 751 mmHg 17%
    17:00 +44°C° 0 mm 9 mps 751 mmHg 19%
    18:00 +43°C° 0 mm 9 mps 751 mmHg 20%
    19:00 +41°C° 0 mm 8 mps 751 mmHg 22%
    20:00 +41°C° 0 mm 8 mps 751 mmHg 23%
    21:00 +40°C° 0 mm 8 mps 752 mmHg 25%
    22:00 +40°C° 0 mm 8 mps 751 mmHg 26%
    23:00 +40°C° 0 mm 8 mps 751 mmHg 27%

    Tomorrow, 30 May, Tuesday

    Time Temperature Precipitation Wind Pressure Humidity
    00:00 +40°C° 0 mm 8 mps 751 mmHg 28%
    01:00 +39°C° 0 mm 8 mps 751 mmHg 30%
    02:00 +39°C° 0 mm 8 mps 751 mmHg 31%
    03:00 +39°C° 0 mm 8 mps 751 mmHg 33%
    04:00 +38°C° 0 mm 8 mps 751 mmHg 35%
    05:00 +38°C° 0 mm 8 mps 751 mmHg 37%
    06:00 +38°C° 0 mm 8 mps 752 mmHg 38%
    07:00 +40°C° 0 mm 8 mps 752 mmHg 32%
    08:00 +43°C° 0 mm 8 mps 752 mmHg 26%
    09:00 +45°C° 0 mm 9 mps 752 mmHg 20%
    10:00 +47°C° 0 mm 9 mps 752 mmHg 18%
    11:00 +47°C° 0 mm 9 mps 752 mmHg 17%
    12:00 +48°C° 0 mm 10 mps 752 mmHg 16%
    13:00 +48°C° 0 mm 10 mps 752 mmHg 16%
    14:00 +48°C° 0 mm 10 mps 751 mmHg 15%
    15:00 +48°C° 0 mm 10 mps 751 mmHg 15%
    16:00 +47°C° 0 mm 10 mps 751 mmHg 16%
    17:00 +45°C° 0 mm 10 mps 751 mmHg 17%
    18:00 +44°C° 0 mm 10 mps 751 mmHg 19%
    19:00 +44°C° 0 mm 9 mps 751 mmHg 21%
    20:00 +43°C° 0 mm 9 mps 751 mmHg 23%
    21:00 +42°C° 0 mm 9 mps 752 mmHg 25%
    22:00 +42°C° 0 mm 9 mps 751 mmHg 26%
    23:00 +42°C° 0 mm 10 mps 751 mmHg 27%

    Day after tomorrow, 31 May, Wednesday

    Time Temperature Precipitation Wind Pressure Humidity
    00:00 +40°C° 0 mm 10 mps 751 mmHg 27%
    01:00 +40°C° 0 mm 10 mps 751 mmHg 30%
    02:00 +39°C° 0 mm 10 mps 751 mmHg 32%
    03:00 +39°C° 0 mm 10 mps 751 mmHg 34%
    04:00 +38°C° 0 mm 10 mps 751 mmHg 34%
    05:00 +38°C° 0 mm 10 mps 751 mmHg 34%
    06:00 +38°C° 0 mm 11 mps 752 mmHg 34%
    07:00 +39°C° 0 mm 11 mps 752 mmHg 28%
    08:00 +42°C° 0 mm 11 mps 752 mmHg 22%
    09:00 +44°C° 0 mm 12 mps 752 mmHg 16%
    10:00 +44°C° 0 mm 12 mps 752 mmHg 16%
    11:00 +46°C° 0 mm 13 mps 752 mmHg 15%
    12:00 +47°C° 0 mm 13 mps 751 mmHg 14%
    13:00 +47°C° 0 mm 13 mps 751 mmHg 13%
    14:00 +47°C° 0 mm 13 mps 750 mmHg 13%
    15:00 +47°C° 0 mm 13 mps 750 mmHg 12%
    16:00 +47°C° 0 mm 13 mps 750 mmHg 14%
    17:00 +46°C° 0 mm 12 mps 750 mmHg 15%
    18:00 +44°C° 0 mm 11 mps 750 mmHg 16%
    19:00 +44°C° 0 mm 11 mps 750 mmHg 18%
    20:00 +43°C° 0 mm 11 mps 750 mmHg 19%
    21:00 +42°C° 0 mm 11 mps 750 mmHg 21%
    22:00 +42°C° 0 mm 11 mps 750 mmHg 22%
    23:00 +42°C° 0 mm 11 mps 750 mmHg 24%

    1 June, Thursday

    Time Temperature Precipitation Wind Pressure Humidity
    00:00 +41°C° 0 mm 11 mps 750 mmHg 25%
    01:00 +41°C° 0 mm 11 mps 750 mmHg 26%
    02:00 +39°C° 0 mm 11 mps 749 mmHg 27%
    03:00 +39°C° 0 mm 12 mps 749 mmHg 28%
    04:00 +38°C° 0 mm 12 mps 750 mmHg 30%
    05:00 +38°C° 0 mm 12 mps 750 mmHg 31%
    06:00 +38°C° 0 mm 12 mps 751 mmHg 33%
    07:00 +39°C° 0 mm 12 mps 751 mmHg 29%
    08:00 +41°C° 0 mm 13 mps 751 mmHg 25%
    09:00 +42°C° 0 mm 13 mps 752 mmHg 21%
    10:00 +43°C° 0 mm 13 mps 751 mmHg 20%
    11:00 +43°C° 0 mm 13 mps 751 mmHg 18%
    12:00 +45°C° 0 mm 13 mps 751 mmHg 17%
    13:00 +45°C° 0 mm 13 mps 750 mmHg 16%
    14:00 +45°C° 0 mm 13 mps 750 mmHg 15%
    15:00 +46°C° 0 mm 12 mps 750 mmHg 14%
    16:00 +44°C° 0 mm 12 mps 750 mmHg 16%
    17:00 +43°C° 0 mm 12 mps 750 mmHg 17%
    18:00 +43°C° 0 mm 11 mps 750 mmHg 19%
    19:00 +42°C° 0 mm 11 mps 750 mmHg 21%
    20:00 +42°C° 0 mm 11 mps 750 mmHg 23%
    21:00 +40°C° 0 mm 10 mps 750 mmHg 26%
    22:00 +40°C° 0 mm 10 mps 750 mmHg 28%
    23:00 +39°C° 0 mm 10 mps 750 mmHg 29%

    2 June, Friday

    Time Temperature Precipitation Wind Pressure Humidity
    00:00 +39°C° 0 mm 10 mps 750 mmHg 31%
    01:00 +38°C° 0 mm 10 mps 750 mmHg 34%
    02:00 +38°C° 0 mm 10 mps 750 mmHg 36%
    03:00 +37°C° 0 mm 10 mps 750 mmHg 39%
    04:00 +37°C° 0 mm 10 mps 750 mmHg 40%
    05:00 +37°C° 0 mm 9 mps 750 mmHg 41%
    06:00 +35°C° 0 mm 9 mps 751 mmHg 42%
    07:00 +38°C° 0 mm 9 mps 751 mmHg 35%
    08:00 +39°C° 0 mm 9 mps 751 mmHg 29%
    09:00 +42°C° 0 mm 9 mps 751 mmHg 22%
    10:00 +42°C° 0 mm 9 mps 751 mmHg 20%
    11:00 +43°C° 0 mm 9 mps 751 mmHg 18%
    12:00 +44°C° 0 mm 9 mps 750 mmHg 16%
    13:00 +44°C° 0 mm 9 mps 750 mmHg 16%
    14:00 +44°C° 0 mm 10 mps 750 mmHg 16%
    15:00 +43°C° 0 mm 10 mps 750 mmHg 16%
    16:00 +43°C° 0 mm 10 mps 750 mmHg 17%
    17:00 +42°C° 0 mm 9 mps 750 mmHg 18%
    18:00 +40°C° 0 mm 9 mps 750 mmHg 20%
    19:00 +40°C° 0 mm 8 mps 750 mmHg 22%
    20:00 +39°C° 0 mm 8 mps 750 mmHg 24%
    21:00 +39°C° 0 mm 7 mps 750 mmHg 26%
    22:00 +38°C° 0 mm 7 mps 750 mmHg 27%
    23:00 +38°C° 0 mm 7 mps 750 mmHg 29%

    3 June, Saturday

    Time Temperature Precipitation Wind Pressure Humidity
    00:00 +38°C° 0 mm 7 mps 749 mmHg 30%
    01:00 +36°C° 0 mm 7 mps 749 mmHg 34%
    02:00 +36°C° 0 mm 6 mps 749 mmHg 38%
    03:00 +36°C° 0 mm 6 mps 749 mmHg 41%
    04:00 +36°C° 0 mm 6 mps 749 mmHg 42%
    05:00 +35°C° 0 mm 6 mps 750 mmHg 43%
    06:00 +35°C° 0 mm 5 mps 750 mmHg 44%
    07:00 +37°C° 0 mm 5 mps 750 mmHg 38%
    08:00 +40°C° 0 mm 4 mps 751 mmHg 31%
    09:00 +41°C° 0 mm 4 mps 751 mmHg 25%
    10:00 +42°C° 0 mm 4 mps 751 mmHg 22%
    11:00 +43°C° 0 mm 4 mps 750 mmHg 20%
    12:00 +44°C° 0 mm 3 mps 750 mmHg 17%
    13:00 +44°C° 0 mm 4 mps 750 mmHg 17%
    14:00 +44°C° 0 mm 4 mps 750 mmHg 18%
    15:00 +45°C° 0 mm 5 mps 749 mmHg 18%
    16:00 +42°C° 0 mm 5 mps 749 mmHg 24%
    17:00 +40°C° 0 mm 6 mps 749 mmHg 30%
    18:00 +39°C° 0 mm 6 mps 749 mmHg 36%
    19:00 +38°C° 0 mm 6 mps 750 mmHg 38%
    20:00 +37°C° 0 mm 5 mps 750 mmHg 40%
    21:00 +36°C° 0 mm 5 mps 750 mmHg 41%
    22:00 +36°C° 0 mm 5 mps 750 mmHg 41%
    23:00 +36°C° 0 mm 4 mps 750 mmHg 41%
    Show more